User: anonymous   Login
Location: Newark
(17.9939°S, 31.0481°E)
Time: 00:16:56
(UTC+00:00)
Language:

Altair - Orbit

View from above orbital plane
View from above orbital plane
View from above satellite
View from above satellite

Ground track
Ground track

The orbit data is extracted from the following two-line orbital elements,

1    50U 60009B   19314.80363896 -.00000105 +00000-0 -17259-3 0  9996
2    50 047.2315 082.9846 0113191 031.2552 329.4905 12.20109100643405
Epoch (UTC): 10 November 2019 19:17:14
Eccentricity: 0.0113191
inclination: 47.2315°
perigee height: 1502 km
apogee height: 1682 km
right ascension of ascending node: 82.9846°
argument of perigee: 31.2552°
revolutions per day: 12.20109100
mean anomaly at epoch: 329.4905°
orbit number at epoch: 64340

The dashed part of the orbit path shows where the satellite is in the earth's shadow,  

DLR